Rochelle, IL

10:21 AM CST on November 15, 2019 (GMT -0600)
Rochelle

Weather History for KRPJ - August, 2019

Change the Weather History Date:

Friday, August 30, 2019

  Actual Average (WUND) Record (WUND)
Temperature  
Mean Temperature 61 °F -  
Max Temperature 70 °F - - (-1)
Min Temperature 52 °F - - (-1)
Degree Days  
Heating Degree Days 4    
Growing Degree Days 11 (Base 50)    
Moisture  
Dew Point 53 °F    
Average Humidity 76    
Maximum Humidity 99    
Minimum Humidity 46    
Precipitation  
Precipitation 0.00 in - - ()
Sea Level Pressure  
Sea Level Pressure 30.14 in    
Wind  
Wind Speed 4 mph ()    
Max Wind Speed 10 mph    
Max Gust Speed -    
Visibility 10.0 miles    
Events      
Averages and records for this station are not official NWS values.
T = Trace of Precipitation, MM = Missing Value Source: Averaged Metar Reports

Daily Weather History Graph

Daily Weather History Graph

Search for Another Location

Airport or City:

Astronomy

Aug. 30, 2019 Rise Set
Actual Time 6:19 AM CDT 7:33 PM CDT
Civil Twilight 5:50 AM CDT 8:02 PM CDT
Nautical Twilight 5:16 AM CDT 8:36 PM CDT
Astronomical Twilight 4:40 AM CDT 9:12 PM CDT
Moon 6:19 AM CDT (8/30) 8:10 PM CDT (8/30)
Length of Visible Light 14h 11m
Length of Day
13h 13m
New Moon, 0% of the Moon is Illuminated
Aug 30
New Moon
Sep 5
First Quarter
Sep 13
Full
Sep 21
Last Quarter
Sep 28
New

Hourly Weather History & Observations

Time (CDT) Temp. Dew Point Humidity Pressure Visibility Wind Dir Wind Speed Gust Speed Precip Events Conditions
12:15 AM 63.1 °F 53.1 °F 70% 30.00 in 10.0 mi NNW 4.6 mph - N/A   Clear
12:35 AM 61.7 °F 53.6 °F 75% 30.00 in 10.0 mi NNW 6.9 mph - N/A   Clear
12:55 AM 61.9 °F 53.6 °F 74% 30.00 in 10.0 mi North 8.1 mph - N/A   Clear
1:15 AM 61.3 °F 53.6 °F 76% 30.00 in 10.0 mi NNW 10.4 mph - N/A   Clear
1:35 AM 59.9 °F 53.8 °F 80% 30.00 in 10.0 mi NNW 6.9 mph - N/A   Clear
1:55 AM 59.5 °F 53.8 °F 81% 30.00 in 10.0 mi NNW 6.9 mph - N/A   Clear
2:15 AM 58.8 °F 53.4 °F 82% 30.00 in 10.0 mi North 4.6 mph - N/A   Clear
2:35 AM 57.6 °F 53.6 °F 87% 30.01 in 10.0 mi North 4.6 mph - N/A   Clear
2:55 AM 57.7 °F 53.6 °F 86% 30.01 in 10.0 mi North 4.6 mph - N/A   Clear
3:15 AM 56.5 °F 53.2 °F 89% 30.01 in 10.0 mi Calm Calm - N/A   Clear
3:35 AM 54.9 °F 52.5 °F 92% 30.03 in 10.0 mi Calm Calm - N/A   Clear
3:55 AM 56.1 °F 53.4 °F 91% 30.06 in 10.0 mi WNW 3.5 mph - N/A   Clear
4:15 AM 54.7 °F 53.4 °F 96% 30.06 in 10.0 mi Calm Calm - N/A   Clear
4:35 AM 53.6 °F 52.9 °F 97% 30.06 in 10.0 mi Calm Calm - N/A   Clear
4:55 AM 54.0 °F 53.2 °F 97% 30.08 in 10.0 mi West 4.6 mph - N/A   Clear
5:15 AM 53.4 °F 52.9 °F 98% 30.09 in 10.0 mi West 3.5 mph - N/A   Clear
5:35 AM 53.2 °F 52.7 °F 98% 30.09 in 10.0 mi Calm Calm - N/A   Clear
5:55 AM 53.8 °F 53.4 °F 99% 30.09 in 10.0 mi NNW 3.5 mph - N/A   Clear
6:15 AM 54.0 °F 53.4 °F 98% 30.10 in 10.0 mi NNW 3.5 mph - N/A   Clear
6:35 AM 53.6 °F 52.9 °F 97% 30.10 in 10.0 mi North 3.5 mph - N/A   Clear
6:55 AM 54.0 °F 53.4 °F 98% 30.12 in 10.0 mi NNW 3.5 mph - N/A   Clear
7:15 AM 54.9 °F 53.8 °F 96% 30.13 in 10.0 mi Calm Calm - N/A   Clear
7:35 AM 55.9 °F 55.0 °F 97% 30.13 in 10.0 mi Calm Calm - N/A   Clear
7:55 AM 57.6 °F 55.0 °F 91% 30.14 in 10.0 mi NNW 4.6 mph - N/A   Clear
8:15 AM 59.0 °F 55.4 °F 88% 30.14 in 10.0 mi NNW 4.6 mph - N/A   Clear
8:35 AM 59.9 °F 55.4 °F 85% 30.14 in 10.0 mi North 4.6 mph - N/A   Clear
8:55 AM 61.0 °F 55.0 °F 81% 30.15 in 10.0 mi North 4.6 mph - N/A   Clear
9:15 AM 61.9 °F 54.5 °F 77% 30.16 in 10.0 mi NNW 4.6 mph - N/A   Clear
9:35 AM 62.6 °F 54.1 °F 74% 30.16 in 10.0 mi NNW 5.8 mph - N/A   Clear
9:55 AM 63.0 °F 53.6 °F 71% 30.16 in 10.0 mi North 5.8 mph - N/A   Clear
10:15 AM 64.0 °F 54.0 °F 70% 30.16 in 10.0 mi North 3.5 mph - N/A   Clear
10:35 AM 64.6 °F 54.9 °F 71% 30.16 in 10.0 mi North 4.6 mph - N/A   Clear
10:55 AM 65.5 °F 55.2 °F 69% 30.16 in 10.0 mi North 4.6 mph - N/A   Clear
11:15 AM 66.6 °F 54.7 °F 66% 30.16 in 10.0 mi North 5.8 mph - N/A   Clear
11:35 AM 66.7 °F 52.2 °F 59% 30.17 in 10.0 mi NNW 3.5 mph - N/A   Clear
11:55 AM 67.3 °F 51.1 °F 56% 30.16 in 10.0 mi NNW 4.6 mph - N/A   Clear
12:15 PM 67.5 °F 50.2 °F 54% 30.16 in 10.0 mi NNW 5.8 mph - N/A   Clear
12:35 PM 67.6 °F 50.7 °F 55% 30.16 in 10.0 mi North 6.9 mph - N/A   Clear
12:55 PM 67.6 °F 50.5 °F 54% 30.16 in 10.0 mi North 4.6 mph - N/A   Clear
1:15 PM 68.5 °F 52.2 °F 56% 30.17 in 10.0 mi NNW 4.6 mph - N/A   Clear
1:35 PM 68.2 °F 49.8 °F 52% 30.17 in 10.0 mi Calm Calm - N/A   Clear
1:55 PM 68.7 °F 50.7 °F 53% 30.17 in 10.0 mi Calm Calm - N/A   Clear
2:15 PM 68.9 °F 48.7 °F 49% 30.17 in 10.0 mi NW 4.6 mph - N/A   Clear
2:35 PM 69.1 °F 51.3 °F 53% 30.17 in 10.0 mi Calm Calm - N/A   Clear
2:55 PM 68.9 °F 51.4 °F 54% 30.17 in 10.0 mi Calm Calm - N/A   Clear
3:15 PM 68.9 °F 50.7 °F 52% 30.17 in 10.0 mi NNE 3.5 mph - N/A   Clear
3:35 PM 69.4 °F 51.1 °F 52% 30.17 in 10.0 mi NE 3.5 mph - N/A   Clear
3:55 PM 69.8 °F 50.0 °F 49% 30.17 in 10.0 mi NNW 4.6 mph - N/A   Clear
4:15 PM 70.2 °F 49.8 °F 48% 30.17 in 10.0 mi NNW 3.5 mph - N/A   Clear
4:35 PM 70.0 °F 50.0 °F 49% 30.17 in 10.0 mi North 3.5 mph - N/A   Clear
4:55 PM 69.8 °F 49.6 °F 49% 30.18 in 10.0 mi Calm Calm - N/A   Clear
5:15 PM 70.0 °F 48.6 °F 46% 30.17 in 10.0 mi Calm Calm - N/A   Clear
5:35 PM 69.1 °F 50.9 °F 52% 30.18 in 10.0 mi NNW 4.6 mph - N/A   Clear
5:55 PM 68.2 °F 52.0 °F 56% 30.17 in 10.0 mi North 4.6 mph - N/A   Clear
6:15 PM 68.0 °F 52.5 °F 58% 30.18 in 10.0 mi North 3.5 mph - N/A   Clear
6:35 PM 67.1 °F 53.4 °F 61% 30.18 in 10.0 mi North 4.6 mph - N/A   Clear
6:50 PM 66.4 °F 53.8 °F 64% 30.18 in 10.0 mi North 4.6 mph - N/A   Clear
7:15 PM 65.1 °F 53.6 °F 66% 30.18 in 10.0 mi North 3.5 mph - N/A   Clear
7:35 PM 63.5 °F 54.1 °F 72% 30.19 in 10.0 mi North 4.6 mph - N/A   Clear
7:55 PM 61.9 °F 54.1 °F 76% 30.19 in 10.0 mi North 4.6 mph - N/A   Clear
8:15 PM 60.6 °F 54.7 °F 81% 30.20 in 10.0 mi Calm Calm - N/A   Clear
8:35 PM 60.6 °F 54.5 °F 80% 30.22 in 10.0 mi Calm Calm - N/A   Clear
8:55 PM 56.5 °F 54.9 °F 94% 30.22 in 10.0 mi Calm Calm - N/A   Clear
9:15 PM 56.3 °F 54.9 °F 95% 30.22 in 10.0 mi Calm Calm - N/A   Clear
9:30 PM 57.0 °F 54.3 °F 91% 30.23 in 10.0 mi Calm Calm - N/A   Clear
9:50 PM 54.5 °F 53.8 °F 97% 30.24 in 10.0 mi Calm Calm - N/A   Clear
10:15 PM 53.8 °F 53.4 °F 99% 30.24 in 10.0 mi Calm Calm - N/A   Clear
10:35 PM 54.7 °F 53.6 °F 96% 30.24 in 10.0 mi Calm Calm - N/A   Clear
10:55 PM 55.4 °F 53.6 °F 94% 30.24 in 10.0 mi Calm Calm - N/A   Clear
11:15 PM 52.3 °F 52.0 °F 99% 30.24 in 10.0 mi Calm Calm - N/A   Clear
11:35 PM 52.0 °F 51.8 °F 99% 30.24 in 10.0 mi Calm Calm - N/A   Clear
11:55 PM 53.6 °F 52.7 °F 97% 30.24 in 10.0 mi ENE 4.6 mph - N/A   Clear